[[{"header":{"parameterUnit":"m.s-1","parameterCategory":1,"la1":30.2991,"la2":30.254,"lo1":-89.0895,"lo2":-89.0444,"dy":0.0017,"dx":0.0017,"nx":28,"ny":28,"refTime":"2025-08-19T21:00:00:Z","depth":0,"parameterNumber":2,"parameterNumberName":"U-component_of_WINDS"},"data":[0,0,0,0,0,0,0,0,0,0,0,0,0,0,0,0,0,0,0,0,0,0,0,0,0,0,0,0,0,0,0,0,0,0,0,0,0,0,0,0,0,0,0,0,0,0,0,0,0,0,0,0,0,0,0,0,0,0,0.6335,0.6336,0,0.6391,0.6392,0.6392,0.6421,0.6421,0.6421,0.6421,0.6478,0.6479,0.6481,0,0,0,0,0,0,0,0,0,0,0,0,0,0.6252,0.6254,0.6335,0.6336,0.6336,0.6391,0.6392,0.6392,0.6421,0.6421,0.6421,0.6421,0.6478,0.6479,0.6481,0,0,0,0,0,0,0,0,0,0,0,0,0,0.6296,0.6254,0.6335,0.6357,0.636,0.6391,0.6392,0.6393,0.6421,0.6421,0.6421,0.6421,0.6477,0.6479,0.6481,0.6495,0,0,0.6488,0.6489,0,0,0,0,0,0,0,0,0.6294,0.6299,0.6353,0.6356,0.6359,0.6399,0.6384,0.6427,0.6421,0.6398,0.6421,0.6421,0.6452,0.6456,0.6466,0.6497,0.65,0.6488,0.649,0.6491,0.6491,0,0,0,0,0,0,0,0.6291,0.6297,0.6357,0.6354,0.6357,0.6364,0.6371,0.6392,0.6424,0.64,0.6402,0.6408,0.6453,0.6464,0.6468,0.6501,0.6488,0.649,0.6492,0.6493,0.6545,0.6546,0,0,0,0,0,0,0.6284,0.6294,0.6355,0.6359,0.6326,0.6366,0.6373,0.6386,0.6424,0.6429,0.6408,0.6409,0.646,0.6465,0.647,0.6488,0.6491,0.6493,0.6494,0.6545,0.6545,0.6546,0,0,0,0,0,0,0.6282,0.6289,0.6353,0.6327,0.6336,0.6367,0.6382,0.6387,0.6398,0.643,0.6436,0.6413,0.6461,0.6467,0.6488,0.6491,0.6494,0.6496,0.6545,0.6545,0.6546,0.6525,0,0,0,0,0,0,0.628,0.6288,0.6294,0.6327,0.6337,0.637,0.6382,0.6388,0.6402,0.6404,0.6437,0.6442,0.6461,0.6485,0.6491,0.6494,0.6498,0.6545,0.6545,0.6545,0.6526,0.6524,0.6523,0,0,0,0,0,0.6277,0.6286,0.6294,0.6301,0.6345,0.6371,0.6376,0.6398,0.6402,0.6408,0.6428,0.6441,0.6489,0.6487,0.6494,0.6498,0.6545,0.6545,0.6545,0.6526,0.6525,0.6523,0,0,0,0,0,0,0.6252,0.6291,0.63,0.632,0.6342,0.6375,0.6383,0.6396,0.6417,0.6418,0.6444,0.6451,0.647,0.6486,0.6482,0.6513,0.6519,0.652,0.6502,0.65,0.6499,0.6495,0.65,0,0,0,0,0,0.6249,0.6267,0.6299,0.6314,0.6324,0.6352,0.6364,0.6379,0.6402,0.6412,0.6434,0.6456,0.6476,0.6489,0.651,0.6528,0.6535,0.6534,0.6533,0.6532,0.6533,0.6544,0.6544,0.6546,0.6546,0.6546,0,0,0.6242,0.6266,0.6276,0.631,0.6328,0.6346,0.6359,0.6378,0.6391,0.6415,0.6436,0.6453,0.648,0.65,0.6509,0.6513,0.6534,0.6532,0.6531,0.6532,0.6544,0.6544,0.6543,0.6546,0.6546,0.6546,0,0,0.624,0.626,0.6274,0.6292,0.632,0.6339,0.6342,0.6373,0.6386,0.6408,0.6426,0.6442,0.6476,0.6495,0.6509,0.6513,0.6526,0.6519,0.6513,0.6524,0.6523,0.6523,0.6525,0.6526,0.652,0.652,0.652,0,0.6229,0.6257,0.628,0.6297,0.6312,0.6334,0.6348,0.6365,0.6398,0.6408,0.6411,0.6455,0.6475,0.6499,0.65,0.6511,0.6516,0.6516,0.6522,0.6522,0.6522,0.6524,0.6525,0.6519,0.6519,0.6519,0.6519,0,0.6242,0.6261,0.6269,0.6301,0.6316,0.6332,0.6357,0.637,0.6384,0.6401,0.6424,0.6448,0.6473,0.648,0.6494,0.6507,0.6508,0.6516,0.6523,0.652,0.6523,0.6524,0.6517,0.6518,0.6518,0.6518,0,0,0.6226,0.627,0.6273,0.6287,0.632,0.6335,0.6352,0.6377,0.6387,0.6409,0.6424,0.6453,0.6461,0.6476,0.6492,0.6501,0.6503,0.6508,0.6509,0.6507,0.652,0.6514,0.6514,0.6512,0.6512,0.6512,0.6518,0,0.6229,0.626,0.6281,0.6305,0.6323,0.6343,0.6358,0.6379,0.6396,0.6414,0.6433,0.6453,0.6461,0.6471,0.6481,0.6501,0.6506,0.6501,0.6526,0.6527,0.6519,0.6516,0.6509,0.6513,0.6519,0.6519,0.6519,0,0.6236,0.6258,0.6283,0.6313,0.6322,0.6334,0.6359,0.6376,0.6401,0.6412,0.6429,0.6445,0.6464,0.6469,0.6495,0.6491,0.6503,0.6514,0.6515,0.6518,0.6523,0.6519,0.6515,0.6516,0.6521,0.6521,0.652,0,0.6222,0.6258,0.6277,0.6289,0.6325,0.6334,0.6349,0.6374,0.6388,0.6409,0.6418,0.6442,0.6455,0.6473,0.6494,0.6496,0.6519,0.6525,0.6529,0.6528,0.6533,0.6533,0.6531,0.654,0.654,0.654,0.654,0,0.6224,0.6238,0.6272,0.6284,0.6301,0.6325,0.6341,0.6358,0.638,0.6395,0.6414,0.6429,0.6457,0.6474,0.6491,0.6511,0.6516,0.6526,0.6531,0.6525,0.6524,0.6533,0.6534,0.654,0.654,0.654,0.654,0,0.6211,0.6234,0.6257,0.6289,0.6298,0.6309,0.6336,0.6349,0.6367,0.6386,0.6392,0.642,0.6442,0.6466,0.6495,0.6507,0.6525,0.6531,0.6517,0.652,0.6522,0.6522,0.6527,0.6529,0.6536,0.6536,0.6536,0,0.6211,0.6222,0.6256,0.6268,0.6283,0.6302,0.6316,0.634,0.6354,0.6383,0.6392,0.6415,0.6435,0.6469,0.6492,0.6515,0.6522,0.6522,0.6525,0.6519,0.6522,0.6521,0.6523,0.6521,0.6521,0.6521,0.6521,0,0.6207,0.6218,0.6238,0.6261,0.6278,0.6298,0.6318,0.6327,0.6355,0.637,0.6392,0.6408,0.6438,0.6461,0.6487,0.6503,0.6516,0.6519,0.6521,0.6516,0.6507,0.6512,0.6514,0.6519,0.6519,0.6519,0.6519,0.652,0.6201,0.6212,0.6238,0.6259,0.6277,0.6296,0.6309,0.6329,0.6348,0.6375,0.6388,0.641,0.6435,0.647,0.6486,0.6504,0.6508,0.6511,0.6512,0.6512,0.6511,0.6504,0.6509,0.6509,0.6509,0.6509,0.6509,0,0.6199,0.6216,0.6235,0.6264,0.628,0.6292,0.6315,0.6328,0.6348,0.637,0.6389,0.6415,0.6437,0.6462,0.6486,0.6495,0.6502,0.6501,0.6501,0.6504,0.6506,0.6502,0.6495,0.6495,0.6495,0.6495,0.6495,0.6495,0.62,0.622,0.6233,0.6262,0.628,0.6302,0.6314,0.6332,0.6349,0.6377,0.6396,0.6412,0.6435,0.646,0.6481,0.6488,0.6496,0.6493,0.6501,0.6503,0.6504,0.6505,0.6501,0.6494,0.6494,0.6498,0.6498,0.6498]},{"header":{"parameterUnit":"m.s-1","parameterCategory":1,"la1":30.2991,"la2":30.254,"lo1":-89.0895,"lo2":-89.0444,"dy":0.0017,"dx":0.0017,"nx":28,"ny":28,"refTime":"2025-08-19T21:00:00:Z","depth":0,"parameterNumber":3,"parameterNumberName":"V-component_of_WINDS"},"data":[0,0,0,0,0,0,0,0,0,0,0,0,0,0,0,0,0,0,0,0,0,0,0,0,0,0,0,0,0,0,0,0,0,0,0,0,0,0,0,0,0,0,0,0,0,0,0,0,0,0,0,0,0,0,0,0,0,0,-0.1315,-0.1315,0,-0.1361,-0.1362,-0.1362,-0.1376,-0.1376,-0.1376,-0.1375,-0.1423,-0.1424,-0.1426,0,0,0,0,0,0,0,0,0,0,0,0,0,-0.1239,-0.124,-0.1315,-0.1315,-0.1316,-0.1361,-0.1362,-0.1362,-0.1376,-0.1376,-0.1376,-0.1375,-0.1422,-0.1424,-0.1426,0,0,0,0,0,0,0,0,0,0,0,0,0,-0.1277,-0.1241,-0.1315,-0.1328,-0.133,-0.1361,-0.1362,-0.1362,-0.1376,-0.1376,-0.1376,-0.1375,-0.1422,-0.1424,-0.1426,-0.1446,0,0,-0.1433,-0.1434,0,0,0,0,0,0,0,0,-0.1275,-0.128,-0.1326,-0.1327,-0.1329,-0.1362,-0.1352,-0.139,-0.1376,-0.1359,-0.1375,-0.1375,-0.1403,-0.1407,-0.1416,-0.1449,-0.1451,-0.1433,-0.1434,-0.1435,-0.1436,0,0,0,0,0,0,0,-0.1272,-0.1278,-0.1333,-0.1326,-0.1329,-0.1332,-0.1337,-0.1359,-0.1382,-0.136,-0.1361,-0.1367,-0.1404,-0.1414,-0.1417,-0.1451,-0.1433,-0.1435,-0.1436,-0.1437,-0.1504,-0.1504,0,0,0,0,0,0,-0.1267,-0.1276,-0.1332,-0.1334,-0.1301,-0.1334,-0.134,-0.1352,-0.1382,-0.1386,-0.1367,-0.1367,-0.141,-0.1415,-0.1419,-0.1445,-0.1435,-0.1437,-0.1438,-0.1503,-0.1504,-0.1504,0,0,0,0,0,0,-0.1266,-0.1272,-0.133,-0.1305,-0.1313,-0.1336,-0.135,-0.1353,-0.1363,-0.1387,-0.1391,-0.1373,-0.141,-0.1416,-0.144,-0.1447,-0.1438,-0.144,-0.1503,-0.1503,-0.1504,-0.1498,0,0,0,0,0,0,-0.1263,-0.1271,-0.1279,-0.1305,-0.1314,-0.135,-0.135,-0.1354,-0.1367,-0.1368,-0.1394,-0.1398,-0.141,-0.1436,-0.1442,-0.145,-0.1442,-0.1502,-0.1503,-0.1504,-0.1498,-0.1499,-0.1499,0,0,0,0,0,-0.1261,-0.1276,-0.128,-0.1286,-0.1325,-0.135,-0.1355,-0.1369,-0.1368,-0.1376,-0.1391,-0.1397,-0.1445,-0.1439,-0.1445,-0.1454,-0.1502,-0.1503,-0.1504,-0.1498,-0.1498,-0.1499,0,0,0,0,0,0,-0.125,-0.1279,-0.1284,-0.1308,-0.1326,-0.1352,-0.1363,-0.137,-0.1389,-0.1389,-0.1405,-0.1411,-0.1434,-0.1446,-0.1438,-0.1476,-0.1474,-0.1476,-0.1467,-0.1468,-0.1469,-0.1466,-0.1444,0,0,0,0,0,-0.125,-0.1268,-0.1293,-0.1312,-0.1321,-0.134,-0.1352,-0.1361,-0.1381,-0.1389,-0.1406,-0.1425,-0.1444,-0.1457,-0.1476,-0.1499,-0.1506,-0.1509,-0.151,-0.151,-0.1512,-0.1526,-0.1528,-0.1507,-0.1507,-0.1507,0,0,-0.1251,-0.127,-0.128,-0.131,-0.1326,-0.1344,-0.1347,-0.1366,-0.138,-0.1392,-0.1415,-0.1428,-0.1451,-0.1475,-0.1486,-0.1486,-0.1519,-0.1511,-0.1512,-0.1513,-0.1527,-0.1529,-0.1531,-0.1508,-0.1508,-0.1508,0,0,-0.1263,-0.1278,-0.1296,-0.1312,-0.1335,-0.1348,-0.1352,-0.1377,-0.1386,-0.141,-0.1419,-0.1436,-0.1469,-0.1485,-0.1497,-0.1515,-0.1521,-0.1521,-0.1525,-0.1538,-0.154,-0.1541,-0.1548,-0.1551,-0.1522,-0.1522,-0.1522,0,-0.1261,-0.129,-0.1304,-0.1324,-0.1337,-0.1348,-0.1367,-0.1381,-0.1409,-0.1418,-0.1417,-0.1459,-0.1475,-0.1503,-0.1507,-0.1516,-0.1522,-0.1518,-0.1538,-0.154,-0.1542,-0.1549,-0.1551,-0.1522,-0.1522,-0.1522,-0.1522,0,-0.1287,-0.1307,-0.1318,-0.1346,-0.136,-0.1378,-0.1396,-0.1409,-0.1417,-0.143,-0.1455,-0.1474,-0.1497,-0.1505,-0.1512,-0.1534,-0.1533,-0.1535,-0.1534,-0.1543,-0.155,-0.1553,-0.1522,-0.1522,-0.1522,-0.1522,0,0,-0.1294,-0.1329,-0.1333,-0.1346,-0.1372,-0.1388,-0.1407,-0.143,-0.1441,-0.146,-0.1477,-0.1505,-0.1507,-0.1521,-0.1531,-0.1542,-0.1556,-0.1543,-0.1544,-0.1545,-0.1582,-0.1581,-0.1583,-0.156,-0.1561,-0.1561,-0.158,0,-0.1309,-0.1344,-0.1358,-0.1386,-0.1405,-0.1416,-0.1433,-0.1451,-0.1464,-0.1481,-0.1495,-0.1515,-0.1516,-0.1524,-0.1536,-0.1552,-0.1564,-0.1551,-0.1576,-0.1577,-0.1571,-0.1587,-0.1586,-0.1603,-0.1583,-0.1583,-0.1584,0,-0.1332,-0.1352,-0.1382,-0.1407,-0.1415,-0.143,-0.1453,-0.1469,-0.149,-0.1499,-0.1514,-0.1523,-0.1544,-0.1541,-0.157,-0.156,-0.1572,-0.1581,-0.1582,-0.1585,-0.1581,-0.1591,-0.1608,-0.1611,-0.1588,-0.1587,-0.1587,0,-0.1335,-0.1369,-0.1391,-0.1402,-0.1431,-0.1441,-0.1454,-0.1475,-0.1488,-0.1507,-0.1516,-0.1538,-0.155,-0.1567,-0.1582,-0.1578,-0.161,-0.1607,-0.1618,-0.1617,-0.1624,-0.1624,-0.1644,-0.163,-0.163,-0.163,-0.163,0,-0.1351,-0.137,-0.1393,-0.1407,-0.1428,-0.1444,-0.1464,-0.1477,-0.1496,-0.1513,-0.1523,-0.1539,-0.1557,-0.1575,-0.1587,-0.161,-0.1615,-0.1623,-0.1626,-0.1622,-0.1621,-0.163,-0.163,-0.1631,-0.1631,-0.1631,-0.1631,0,-0.1358,-0.1374,-0.14,-0.1426,-0.1433,-0.1447,-0.1469,-0.1483,-0.1496,-0.1518,-0.1523,-0.1544,-0.1566,-0.1582,-0.1611,-0.1618,-0.1643,-0.1646,-0.1636,-0.1638,-0.1647,-0.1646,-0.1675,-0.1679,-0.1662,-0.1662,-0.1662,0,-0.1368,-0.1382,-0.1409,-0.1422,-0.1434,-0.1454,-0.1467,-0.1483,-0.1497,-0.1522,-0.1533,-0.1556,-0.1575,-0.161,-0.1627,-0.1649,-0.1653,-0.1661,-0.1656,-0.1652,-0.1654,-0.1653,-0.1655,-0.1662,-0.1662,-0.1662,-0.1662,0,-0.1383,-0.1391,-0.141,-0.1433,-0.1449,-0.1467,-0.1486,-0.1495,-0.1514,-0.1529,-0.1552,-0.1567,-0.1596,-0.1618,-0.1642,-0.1655,-0.1662,-0.1664,-0.1667,-0.1664,-0.1658,-0.1663,-0.1639,-0.1663,-0.1663,-0.1663,-0.1663,-0.1663,-0.1393,-0.1406,-0.1428,-0.1449,-0.1465,-0.1482,-0.1497,-0.1512,-0.1531,-0.1556,-0.1564,-0.1588,-0.1608,-0.1641,-0.1654,-0.1673,-0.1673,-0.1678,-0.168,-0.1681,-0.1681,-0.1655,-0.1677,-0.1677,-0.1677,-0.1677,-0.1677,0,-0.141,-0.1424,-0.1444,-0.1469,-0.1486,-0.1491,-0.1512,-0.1526,-0.1546,-0.1565,-0.1584,-0.161,-0.1632,-0.1651,-0.1674,-0.1686,-0.169,-0.1691,-0.1691,-0.1694,-0.1679,-0.1674,-0.1688,-0.1688,-0.1688,-0.1688,-0.1688,-0.1688,-0.1421,-0.1444,-0.1454,-0.1486,-0.15,-0.1523,-0.1535,-0.1551,-0.1566,-0.1595,-0.1613,-0.1626,-0.1645,-0.1669,-0.169,-0.1695,-0.1703,-0.1704,-0.171,-0.1696,-0.1695,-0.1694,-0.1689,-0.1706,-0.1706,-0.1724,-0.1724,-0.1724]}]]